Wetbulb
73.28 74.71 77.09 75.97 75.44 75.65 75.63 75.45 75.50 75.41 75.24 75.60 74.63 73.76 74.52 75.43 75.65 75.61 75.51 75.75 75.93 75.51 75.55 75.48 75.28 75.57 75.49 75.26 75.42 74.89 75.08 75.00 75.30 74.77 74.60 75.00 75.14 74.81 74.66 75.05 75.18 73.31 75.78
73.66 74.98 77.07 76.49 75.36 75.37 75.47 75.50 75.20 74.80 74.41 73.90 73.56 73.62 74.97 75.17 75.40 75.41 75.38 75.53 75.47 75.47 75.42 75.21 75.10 75.40 74.91 74.91 74.79 74.59 74.44 74.98 75.42 75.37 74.33 73.72 73.90 74.59 74.25 75.07 74.86 74.43 75.30
73.00 75.16 75.29 76.55 75.82 75.03 74.81 74.72 74.20 74.18 73.44 72.98 73.05 73.25 74.41 75.01 75.10 75.23 75.06 75.06 75.04 75.32 75.08 75.05 74.72 74.66 74.24 74.27 74.09 74.37 75.03 74.72 74.90 74.89 73.93 71.03 71.32 74.36 73.71 74.88 75.09 75.39 75.16
73.74 74.92 74.62 76.86 76.32 75.86 75.37 74.66 73.79 73.51 73.59 73.05 72.73 72.86 74.01 74.41 74.67 74.63 74.68 74.79 74.72 75.07 74.87 74.58 74.48 74.06 73.77 73.45 73.73 74.30 74.47 74.62 74.30 73.36 70.91 70.86 71.20 73.68 73.78 74.22 74.18 74.14 74.04
73.78 74.93 75.04 76.97 76.64 76.32 76.20 75.62 74.57 74.21 74.32 73.52 72.82 72.71 73.28 73.86 74.57 74.45 74.46 74.65 74.72 74.79 74.59 74.25 73.90 73.47 73.11 73.15 74.26 74.47 74.20 74.54 73.58 71.41 70.14 69.80 70.19 72.64 73.30 72.91 73.06 73.35 73.77
73.28 74.43 76.17 77.02 77.02 76.52 76.50 75.97 75.54 75.28 74.66 73.91 72.97 72.45 72.57 73.31 73.97 74.36 74.14 74.19 74.31 74.52 74.39 73.77 73.19 72.91 73.13 73.91 74.04 73.55 73.72 73.60 71.94 69.59 69.12 70.47 69.75 72.60 72.81 72.32 73.20 73.42 73.37
72.39 74.58 75.15 77.15 76.74 76.64 76.47 75.80 75.63 75.41 75.05 74.82 73.86 72.93 72.43 72.83 73.56 74.23 74.07 73.64 74.13 73.94 74.05 73.38 73.03 73.11 73.41 73.47 73.35 73.18 73.79 72.73 68.84 68.36 68.59 68.75 69.73 72.04 72.10 72.19 72.42 72.47 72.63
70.96 74.67 74.82 76.67 76.91 76.30 76.24 75.84 75.59 75.67 75.04 74.77 74.46 74.00 73.09 72.88 73.92 73.99 73.80 73.71 73.76 73.55 73.40 73.25 72.98 72.89 72.82 72.65 73.15 72.62 72.56 71.53 68.81 67.43 67.36 68.11 71.01 71.00 71.31 71.07 70.99 71.58 72.03
71.36 73.83 74.06 73.94 75.30 75.92 75.42 75.59 75.31 75.21 74.64 74.41 74.41 73.87 73.46 73.44 73.28 73.41 73.42 73.44 73.17 73.12 73.04 72.75 72.82 72.43 72.40 72.12 72.35 72.15 71.62 70.02 65.16 65.96 67.02 66.90 70.12 69.47 69.59 69.51 69.66 69.88 70.31
72.04 71.03 73.20 72.95 72.77 72.80 73.29 74.58 74.28 74.86 74.44 74.15 73.80 73.66 72.81 73.07 72.86 72.37 72.75 73.22 72.95 72.80 72.72 72.49 72.29 72.19 71.81 72.22 71.85 71.60 71.16 68.50 64.18 63.89 65.10 66.36 68.53 68.93 68.73 68.27 68.60 68.88 69.55
70.81 71.21 71.13 72.31 71.73 71.87 71.55 72.02 73.65 73.83 73.87 73.15 72.63 72.63 71.44 67.81 69.81 69.91 71.93 72.68 72.61 72.53 72.49 72.04 71.91 71.17 70.69 70.60 70.16 69.62 68.58 64.47 63.76 64.08 64.63 67.61 68.37 68.41 68.19 67.87 67.78 67.80 67.99
66.74 68.12 70.00 70.55 70.41 70.92 71.82 70.35 70.32 70.20 68.38 69.24 70.10 69.21 68.25 67.38 67.31 68.63 70.82 71.58 72.04 72.06 72.09 72.00 71.27 70.85 68.89 65.13 65.63 67.85 64.28 63.52 62.93 63.54 64.13 67.68 67.73 67.86 67.73 67.35 67.12 67.04 67.09
64.07 68.02 69.25 69.64 70.38 70.06 69.91 68.48 68.29 69.23 68.27 67.35 68.19 67.23 66.20 66.57 64.32 67.23 67.68 68.79 67.99 70.23 68.92 68.94 67.86 67.75 64.83 65.82 65.23 64.76 63.94 62.89 62.42 63.06 65.39 66.53 67.05 67.02 67.11 66.81 66.55 66.45 66.41
56.84 59.81 69.31 69.60 69.02 69.51 69.72 69.27 68.11 68.00 67.28 67.08 66.67 66.98 64.29 63.76 64.53 65.78 66.90 67.72 67.25 67.06 66.21 65.46 65.18 62.69 64.71 65.34 64.06 61.61 62.69 61.86 62.16 61.71 64.73 66.99 66.87 66.50 66.75 66.68 66.38 66.12 65.94
55.62 58.70 60.89 68.14 68.43 69.38 68.98 68.42 67.07 67.41 66.35 66.58 65.90 65.90 63.42 63.08 62.55 63.24 64.47 66.96 66.83 66.71 64.85 62.79 60.39 60.46 59.95 60.08 61.61 62.65 61.85 61.66 60.51 62.50 62.25 64.86 66.94 66.18 66.26 66.50 66.37 66.14 65.90
56.50 57.60 59.42 60.41 66.34 68.35 67.37 67.62 67.74 66.51 66.48 65.64 65.95 64.35 63.15 63.06 63.49 62.76 62.17 65.27 66.28 65.79 62.62 60.50 59.79 59.27 60.06 60.59 59.00 61.86 62.02 61.26 61.41 60.46 60.98 63.29 66.30 66.50 65.90 66.04 65.92 65.83 65.73
55.70 57.21 58.64 60.03 60.77 61.78 67.91 67.76 67.44 67.50 67.29 66.83 66.48 64.61 63.83 61.82 61.73 60.80 62.83 65.88 66.01 62.11 60.12 59.38 59.42 59.28 58.61 59.25 57.96 59.30 60.76 60.53 61.17 60.70 60.64 60.27 61.89 65.45 65.76 65.02 65.12 65.15 65.04
56.07 56.41 57.68 60.10 60.18 60.34 66.61 67.48 66.67 67.28 67.29 66.52 65.97 64.52 63.42 61.67 60.01 61.30 63.80 65.57 66.40 62.01 60.68 58.68 58.64 58.17 57.74 58.19 57.63 57.87 58.49 60.39 60.48 60.62 60.41 59.60 58.77 60.01 63.61 65.11 64.32 64.34 64.36
56.33 56.45 57.07 58.36 58.50 59.91 61.77 66.02 66.33 66.56 66.47 67.00 66.28 64.69 62.21 63.30 64.09 63.91 64.19 65.36 65.23 61.39 60.06 59.71 58.35 58.02 57.08 56.90 57.90 57.23 57.29 57.47 58.27 59.84 58.41 58.73 59.24 58.93 59.14 64.50 64.85 64.23 63.48
57.37 57.72 57.30 57.63 58.61 58.77 61.89 64.82 65.79 65.73 65.71 66.31 66.20 66.02 64.97 63.78 65.39 65.30 63.61 64.40 62.57 60.06 58.68 58.92 58.10 57.92 57.09 56.16 58.27 56.22 55.48 55.38 56.38 56.57 57.10 59.19 58.73 58.30 57.46 57.33 56.37 59.66 62.99
56.80 56.75 56.89 56.93 57.86 57.84 61.90 62.42 63.02 63.38 63.59 63.53 65.45 66.34 65.94 65.85 65.58 64.41 63.92 63.23 60.96 60.31 59.03 58.49 57.29 56.61 56.05 56.00 54.52 53.45 53.39 53.96 53.92 54.62 55.43 55.91 56.17 56.73 56.52 57.17 55.42 55.07 57.22
58.70 57.64 56.33 56.73 57.96 58.55 62.68 62.58 63.53 63.37 63.93 63.81 64.11 64.72 65.28 65.21 65.19 63.65 63.12 61.15 60.78 59.76 59.74 57.92 57.29 55.74 55.42 55.10 52.21 51.08 48.33 50.39 51.98 53.70 52.99 54.82 53.68 54.66 55.01 55.19 54.75 53.89 53.54
58.07 59.37 59.06 57.93 58.67 59.28 62.27 63.42 63.11 63.10 62.10 62.51 62.94 63.27 63.40 64.27 63.71 63.01 61.95 61.56 60.81 60.19 59.62 58.41 57.57 56.50 54.05 53.36 53.95 51.06 47.93 46.63 48.86 50.15 50.55 51.39 51.07 51.14 51.58 52.13 53.00 53.66 52.70
58.52 61.20 62.01 61.74 60.46 62.21 61.96 61.88 60.48 60.84 58.18 60.52 60.24 61.78 60.74 61.17 61.61 62.07 61.54 61.45 60.84 60.11 59.67 59.23 59.24 57.80 55.88 52.83 53.57 54.91 51.60 51.11 46.97 45.66 49.03 50.00 50.36 50.63 50.09 50.64 50.66 51.52 51.75
59.20 60.42 61.40 62.26 62.89 62.33 61.99 62.53 62.01 59.28 58.52 58.70 59.73 60.11 59.17 58.50 59.79 60.19 59.53 59.78 60.33 59.82 60.15 59.76 58.72 57.85 56.58 54.30 53.51 50.96 50.49 50.07 49.78 48.18 45.08 46.99 49.23 50.30 50.15 49.67 49.34 48.99 50.08
58.98 59.67 59.89 59.89 60.83 61.49 61.39 61.85 59.45 57.34 57.30 57.15 57.46 57.82 58.01 56.49 55.17 56.10 57.86 58.40 59.34 59.54 59.40 59.26 59.14 57.93 57.46 55.65 54.37 52.41 50.89 48.56 47.33 47.36 46.26 46.36 46.60 46.94 45.80 45.90 46.20 46.33 48.30
MSLP
1010.09 1010.68 1010.90 1011.29 1011.57 1011.67 1012.00 1012.31 1012.49 1012.64 1012.77 1013.00 1013.30 1013.57 1013.59 1013.71 1013.79 1013.85 1013.89 1013.92 1014.00 1014.16 1014.22 1014.33 1014.34 1014.39 1014.44 1014.50 1014.57 1014.54 1014.51 1014.49 1014.42 1014.51 1014.56 1014.43 1014.24 1014.08 1013.91 1013.59 1013.38 1013.23 1012.98
1009.40 1010.41 1010.95 1011.12 1011.58 1011.81 1012.11 1012.38 1012.71 1012.90 1013.15 1013.22 1013.55 1013.75 1013.87 1013.96 1014.03 1014.16 1014.18 1014.24 1014.28 1014.42 1014.58 1014.72 1014.84 1014.79 1014.90 1014.96 1014.99 1014.94 1014.86 1014.74 1014.66 1014.71 1014.90 1014.92 1014.80 1014.66 1014.49 1014.17 1014.01 1013.74 1013.58
1009.19 1010.08 1010.77 1011.09 1011.42 1011.78 1012.11 1012.44 1012.84 1013.11 1013.38 1013.57 1013.71 1013.87 1014.06 1014.21 1014.30 1014.38 1014.53 1014.54 1014.51 1014.73 1014.90 1015.06 1015.19 1015.28 1015.35 1015.41 1015.34 1015.22 1015.04 1014.98 1014.94 1015.00 1015.23 1015.35 1015.38 1015.17 1015.14 1014.86 1014.55 1014.35 1014.15
1008.98 1009.96 1010.61 1011.13 1011.52 1011.79 1012.06 1012.47 1012.91 1013.30 1013.52 1013.72 1013.93 1014.01 1014.18 1014.34 1014.56 1014.70 1014.79 1014.91 1014.96 1015.05 1015.17 1015.40 1015.57 1015.74 1015.79 1015.79 1015.67 1015.57 1015.65 1015.40 1015.42 1015.78 1015.93 1015.87 1015.77 1015.81 1015.66 1015.50 1015.30 1015.11 1014.95
1008.98 1009.78 1010.33 1011.12 1011.53 1011.85 1012.10 1012.45 1012.83 1013.21 1013.52 1013.85 1014.09 1014.23 1014.38 1014.50 1014.64 1014.91 1015.08 1015.20 1015.30 1015.44 1015.59 1015.74 1015.91 1016.06 1016.16 1016.16 1016.05 1015.88 1015.88 1015.92 1016.18 1016.43 1016.66 1016.59 1016.51 1016.42 1016.37 1016.37 1016.08 1015.89 1015.74
1009.03 1009.40 1010.28 1011.00 1011.48 1011.82 1012.11 1012.44 1012.75 1013.08 1013.51 1013.81 1014.27 1014.39 1014.58 1014.72 1014.79 1015.00 1015.32 1015.55 1015.64 1015.80 1015.96 1016.10 1016.32 1016.38 1016.41 1016.59 1016.46 1016.39 1016.37 1016.60 1016.79 1017.03 1017.18 1017.10 1016.98 1016.87 1016.85 1016.90 1016.72 1016.54 1016.37
1008.73 1009.27 1010.21 1010.89 1011.47 1011.78 1012.05 1012.36 1012.79 1013.15 1013.52 1013.77 1014.15 1014.55 1014.74 1014.84 1015.03 1015.19 1015.42 1015.75 1015.95 1016.10 1016.25 1016.42 1016.63 1016.76 1016.75 1016.87 1016.86 1016.87 1016.88 1017.34 1017.62 1017.75 1017.81 1017.78 1017.60 1017.45 1017.42 1017.44 1017.35 1017.23 1017.07
1008.51 1009.16 1010.03 1010.54 1011.23 1011.76 1012.03 1012.33 1012.64 1013.05 1013.45 1013.90 1014.15 1014.46 1014.76 1015.01 1015.15 1015.41 1015.62 1015.90 1016.19 1016.39 1016.62 1016.78 1017.01 1017.10 1017.21 1017.16 1017.17 1017.33 1017.53 1017.79 1018.26 1018.46 1018.51 1018.50 1018.28 1018.17 1018.19 1018.19 1018.15 1018.04 1017.86
1008.62 1009.01 1009.93 1010.62 1011.00 1011.69 1012.05 1012.32 1012.65 1012.94 1013.46 1013.84 1014.19 1014.54 1014.82 1015.11 1015.40 1015.63 1015.87 1016.12 1016.43 1016.69 1016.89 1017.07 1017.24 1017.33 1017.42 1017.47 1017.39 1017.68 1018.10 1018.36 1018.72 1018.87 1019.12 1019.14 1019.06 1019.02 1018.89 1018.84 1018.88 1018.89 1018.71
1009.34 1009.35 1010.04 1010.59 1011.20 1011.52 1012.15 1012.43 1012.69 1012.91 1013.30 1013.81 1014.23 1014.56 1014.78 1015.14 1015.60 1015.89 1016.11 1016.31 1016.59 1016.87 1017.14 1017.37 1017.63 1017.80 1017.80 1017.71 1017.70 1017.92 1018.54 1018.93 1019.57 1019.67 1019.69 1019.77 1019.63 1019.67 1019.63 1019.52 1019.51 1019.60 1019.60
1009.91 1010.23 1010.59 1010.78 1011.18 1011.52 1011.94 1012.19 1012.74 1013.04 1013.28 1013.90 1014.44 1014.99 1015.00 1015.37 1015.64 1015.92 1016.32 1016.56 1016.76 1017.03 1017.32 1017.66 1017.90 1018.10 1018.25 1018.24 1018.14 1018.23 1018.79 1019.62 1020.19 1020.28 1020.32 1020.29 1020.26 1020.32 1020.36 1020.32 1020.34 1020.37 1020.36
1010.30 1010.31 1010.63 1010.64 1011.18 1011.56 1011.94 1012.22 1012.52 1013.18 1013.83 1014.35 1014.87 1015.11 1015.61 1015.36 1015.66 1015.82 1016.31 1016.81 1016.99 1017.26 1017.44 1017.75 1018.08 1018.24 1018.38 1018.47 1018.46 1018.71 1019.06 1019.99 1020.64 1020.80 1020.85 1020.99 1020.85 1020.89 1020.95 1020.95 1020.97 1021.08 1021.13
1010.07 1010.44 1010.56 1010.87 1011.04 1011.45 1011.87 1012.70 1012.77 1013.17 1014.24 1014.85 1015.23 1014.85 1016.04 1016.19 1016.95 1016.30 1016.61 1017.02 1017.43 1017.55 1017.71 1018.04 1018.25 1018.37 1018.43 1018.45 1018.57 1018.92 1019.60 1020.44 1021.15 1021.26 1021.44 1021.49 1021.59 1021.60 1021.54 1021.58 1021.63 1021.72 1021.79
1009.90 1010.09 1010.41 1010.78 1011.17 1011.42 1011.81 1012.41 1012.95 1013.18 1013.60 1013.97 1014.94 1014.94 1015.58 1016.68 1017.43 1017.73 1017.35 1016.99 1017.52 1017.68 1017.81 1017.96 1018.21 1018.31 1018.38 1018.40 1018.56 1019.27 1019.92 1020.70 1021.46 1021.71 1021.83 1021.97 1021.99 1022.08 1022.10 1022.11 1022.20 1022.31 1022.43
1009.90 1009.92 1010.25 1010.70 1011.03 1011.34 1011.79 1012.13 1012.79 1013.10 1013.71 1014.11 1014.50 1014.81 1015.64 1016.59 1017.70 1017.90 1017.87 1017.64 1017.16 1017.28 1017.38 1017.73 1018.01 1018.24 1018.33 1018.52 1018.59 1019.23 1020.06 1021.05 1021.74 1021.92 1022.21 1022.30 1022.44 1022.52 1022.50 1022.64 1022.77 1022.92 1023.05
1009.39 1009.58 1009.76 1010.30 1010.75 1011.16 1011.58 1012.00 1012.55 1013.04 1013.75 1014.27 1014.69 1015.00 1015.54 1015.72 1016.02 1016.77 1017.76 1017.92 1017.42 1017.15 1017.24 1017.47 1018.07 1018.52 1018.62 1018.61 1019.12 1019.37 1020.45 1021.32 1021.94 1022.53 1022.67 1022.73 1022.78 1022.94 1023.02 1023.11 1023.25 1023.42 1023.64
1009.54 1009.53 1009.67 1009.91 1010.43 1010.97 1011.29 1011.67 1012.11 1012.47 1013.09 1013.87 1014.19 1014.83 1015.34 1015.54 1015.31 1015.95 1017.16 1017.36 1017.58 1016.73 1017.08 1017.51 1018.15 1018.57 1018.94 1019.23 1019.91 1020.08 1020.70 1021.39 1022.14 1022.73 1023.09 1023.40 1023.45 1023.43 1023.57 1023.62 1023.83 1023.91 1024.14
1009.40 1009.61 1009.64 1009.68 1010.06 1010.70 1011.04 1011.45 1011.81 1011.87 1012.52 1013.31 1013.85 1014.26 1014.77 1015.40 1015.49 1016.01 1016.24 1017.41 1017.32 1016.96 1017.19 1017.69 1018.45 1019.11 1019.47 1019.86 1020.27 1020.57 1020.94 1021.30 1022.07 1022.64 1023.19 1023.70 1024.05 1024.10 1024.11 1024.10 1024.23 1024.32 1024.52
1009.23 1009.48 1009.79 1010.00 1010.01 1010.32 1010.78 1011.14 1011.66 1011.70 1012.17 1012.65 1013.33 1013.76 1014.35 1014.69 1015.15 1015.61 1015.99 1016.66 1017.26 1017.09 1017.24 1017.63 1018.55 1019.26 1019.88 1020.33 1020.70 1021.08 1021.29 1021.69 1022.16 1022.59 1023.23 1023.70 1024.13 1024.43 1024.63 1024.59 1024.71 1024.78 1024.92
1009.45 1009.24 1009.51 1010.13 1010.23 1010.05 1010.47 1010.86 1011.28 1011.79 1012.26 1012.45 1012.91 1013.46 1014.02 1014.25 1014.65 1015.31 1016.10 1016.26 1016.79 1017.13 1017.87 1017.65 1018.44 1019.29 1019.99 1020.49 1021.00 1021.65 1021.93 1022.18 1022.38 1022.91 1023.28 1023.71 1024.15 1024.47 1024.83 1025.00 1025.13 1025.20 1025.27
1009.60 1009.34 1009.59 1010.15 1010.37 1010.22 1010.43 1010.97 1011.32 1011.83 1012.25 1012.58 1012.85 1013.24 1013.67 1013.93 1014.44 1015.05 1015.76 1016.28 1016.15 1016.95 1017.75 1018.36 1018.58 1019.45 1020.21 1020.65 1021.53 1022.30 1022.54 1022.70 1022.95 1023.23 1023.53 1023.95 1024.25 1024.63 1024.97 1025.10 1025.34 1025.46 1025.64
1010.17 1009.32 1009.42 1009.78 1010.10 1010.21 1010.39 1010.74 1011.34 1011.78 1012.39 1012.73 1012.96 1013.06 1013.30 1013.68 1014.04 1014.65 1015.27 1015.79 1016.08 1016.79 1017.68 1018.57 1018.91 1019.82 1020.44 1020.72 1021.70 1022.50 1023.29 1023.50 1023.43 1023.47 1023.74 1023.96 1024.42 1024.55 1024.76 1024.85 1025.27 1025.58 1025.82
1010.61 1010.13 1009.67 1009.52 1009.73 1009.96 1010.55 1010.99 1011.72 1012.18 1012.84 1013.27 1013.40 1013.28 1013.29 1013.35 1013.84 1014.10 1014.67 1015.44 1016.09 1016.90 1017.73 1018.28 1019.37 1019.96 1020.49 1020.99 1021.37 1021.92 1023.17 1023.51 1023.66 1023.86 1023.95 1024.21 1024.45 1024.63 1024.92 1024.92 1025.04 1025.31 1025.86
1010.97 1010.39 1009.87 1009.41 1009.43 1009.87 1010.42 1011.18 1011.75 1012.13 1012.95 1013.46 1013.64 1013.58 1013.71 1013.62 1013.95 1013.94 1014.29 1015.52 1015.99 1016.92 1017.67 1018.08 1019.33 1020.11 1020.39 1021.00 1021.42 1021.31 1021.47 1021.96 1023.23 1024.41 1024.31 1024.31 1024.53 1024.87 1025.19 1025.27 1025.66 1025.73 1025.86
1011.19 1010.84 1010.45 1009.91 1009.73 1010.19 1010.62 1011.13 1011.77 1012.43 1013.10 1013.40 1013.55 1013.79 1014.32 1014.68 1014.32 1014.23 1014.83 1015.61 1016.60 1016.74 1017.66 1018.31 1018.93 1019.96 1020.27 1020.74 1021.20 1021.60 1021.61 1022.07 1022.17 1023.31 1024.32 1024.66 1024.79 1025.24 1025.63 1025.94 1026.09 1026.24 1026.20
1011.67 1011.41 1011.20 1010.89 1010.72 1010.60 1010.69 1011.18 1011.91 1012.44 1012.93 1013.40 1013.64 1013.76 1014.18 1014.76 1015.39 1014.46 1015.48 1015.91 1016.49 1016.97 1017.81 1018.41 1018.81 1019.79 1020.19 1020.59 1020.84 1021.25 1021.78 1022.12 1022.32 1022.96 1023.64 1024.48 1025.27 1026.14 1026.18 1026.52 1026.87 1026.82 1026.61
Wind_Speed
11 12 16 15 13 13 11 8 8 10 10 10 10 8 7 9 10 11 11 12 13 13 15 15 17 20 19 19 17 16 17 19 22 23 22 21 22 24 25 24 22 20 26
15 15 16 16 15 13 12 10 9 9 9 11 10 9 8 10 11 11 12 12 13 14 15 16 17 20 18 18 15 14 11 11 17 21 20 19 22 23 24 23 24 22 27
14 15 14 16 16 15 13 12 10 10 10 10 10 10 9 10 10 12 12 12 15 15 15 17 17 18 17 15 14 13 13 20 20 21 18 11 15 24 25 23 24 26 27
14 15 13 16 15 15 14 13 12 11 12 11 10 11 10 9 11 12 13 13 14 16 17 17 17 17 16 13 11 10 15 22 25 21 12 12 15 25 26 25 27 28 27
14 15 14 16 15 14 14 14 14 14 13 12 11 10 10 10 10 12 12 13 15 15 16 16 16 17 14 11 11 12 13 21 21 17 12 10 10 22 26 26 24 27 26
15 13 19 18 16 15 14 14 15 14 15 14 11 10 10 10 10 12 12 13 14 15 16 17 16 16 15 12 12 16 20 21 16 13 11 14 13 24 26 25 25 26 27
13 14 16 18 15 14 14 14 13 14 14 14 13 10 10 10 9 13 13 12 14 14 15 16 16 16 15 13 15 18 21 22 14 13 12 11 14 23 25 26 25 26 27
9 14 13 17 16 14 14 14 14 14 15 14 13 12 10 10 10 13 14 13 14 14 14 15 15 16 14 14 12 12 19 18 13 12 11 10 20 24 25 25 25 25 26
4 12 13 11 13 13 14 14 14 14 15 15 14 13 12 10 11 13 14 14 14 15 14 15 16 16 13 13 12 22 19 18 13 10 11 9 21 21 23 24 24 24 25
10 4 9 8 7 8 6 13 14 13 15 15 14 14 10 11 11 11 12 14 14 15 14 15 16 14 12 11 11 11 13 20 12 9 9 9 20 23 23 23 24 25 26
5 5 4 6 6 5 6 8 13 13 14 14 11 9 9 5 6 7 8 12 15 16 16 16 17 13 9 8 7 5 15 9 10 7 6 18 21 22 23 24 24 25 25
2 5 4 3 3 5 5 5 6 6 3 3 2 5 1 6 5 7 10 12 14 16 17 17 17 16 7 2 1 4 9 12 8 7 7 18 20 22 23 23 24 24 25
3 4 3 3 2 4 3 3 2 5 5 3 6 9 7 8 10 2 4 4 3 10 5 6 7 3 6 3 2 4 13 11 6 6 10 18 19 21 22 23 24 24 25
4 2 7 5 3 3 4 4 3 6 8 6 6 10 6 5 8 8 4 6 5 4 6 5 3 4 5 6 4 12 14 10 6 4 10 16 19 20 22 23 23 24 24
4 5 3 4 5 4 5 4 5 5 6 6 7 10 8 7 4 5 6 4 6 5 5 5 5 3 3 2 5 13 14 13 9 5 4 17 17 19 21 22 23 23 23
4 5 8 6 5 7 5 6 7 6 7 6 6 7 7 9 9 7 4 7 3 4 3 5 5 4 3 4 6 11 15 12 11 6 4 8 16 17 19 20 21 21 22
6 7 2 7 4 3 6 5 6 7 8 7 8 8 10 7 10 10 8 5 5 5 7 6 6 5 6 6 7 8 11 12 11 9 6 5 7 14 16 19 19 20 20
6 6 7 4 8 7 6 5 4 5 7 7 5 6 10 10 8 6 8 7 7 6 6 6 5 4 5 5 4 5 6 10 12 11 8 6 4 5 9 15 17 18 18
6 5 6 8 5 7 6 6 7 5 4 4 7 7 10 11 11 9 7 9 9 5 7 8 4 5 4 4 5 5 5 6 7 7 8 8 7 6 4 12 13 14 16
9 6 4 4 8 4 5 5 5 4 4 4 4 5 8 9 11 10 5 7 5 4 4 6 7 4 5 5 6 5 5 5 5 5 6 7 7 8 6 6 5 6 13
10 5 4 3 7 3 3 4 4 5 3 3 3 7 9 8 11 11 5 7 6 6 6 6 5 7 4 4 5 4 4 4 5 5 5 5 5 6 6 5 3 4 5
12 6 7 6 7 5 4 3 2 4 3 4 0 3 6 10 11 11 11 8 8 7 7 5 5 3 3 4 5 5 3 4 2 4 5 6 6 4 5 4 7 6 5
10 11 4 8 7 6 6 5 4 5 4 2 1 2 1 8 12 14 12 10 9 7 7 7 5 6 5 3 7 6 4 4 3 1 3 4 6 3 3 5 5 4 7
7 9 3 5 5 6 7 6 5 4 3 2 2 3 3 5 7 10 13 10 7 6 8 9 6 4 5 5 4 2 2 6 4 2 0 3 5 5 5 3 4 4 5
8 8 8 4 6 7 7 6 4 6 3 2 3 7 8 4 3 7 5 12 9 6 8 11 8 5 4 3 3 1 3 1 3 5 4 2 3 4 5 4 5 4 5
8 7 7 8 8 2 5 7 8 8 6 5 3 6 6 8 2 7 8 7 6 6 7 7 8 7 5 4 3 3 2 2 1 3 3 4 6 4 4 5 4 4 3
Wind_Direction
135 146 148 150 150 146 145 139 129 121 116 112 101 110 110 96 94 89 83 90 89 89 88 88 90 87 81 81 74 79 82 84 85 77 64 59 58 55 52 52 56 54 51
134 150 155 150 154 155 153 149 142 135 125 119 131 129 100 103 93 93 90 95 94 95 95 92 87 84 83 80 73 66 76 87 87 81 69 57 61 57 52 52 55 58 55
140 144 157 153 156 159 158 156 151 145 138 137 142 136 107 104 98 93 91 101 98 94 94 90 88 86 84 77 67 52 50 71 63 68 68 67 62 64 58 53 53 55 58
135 141 155 160 160 160 158 155 153 151 147 143 144 143 127 106 104 98 96 94 97 98 97 94 94 92 87 82 65 49 81 72 65 57 53 55 59 60 61 59 58 57 57
135 151 154 165 165 165 159 159 159 162 152 145 144 143 135 121 106 105 100 100 102 101 101 100 97 97 94 82 52 35 61 84 80 69 61 64 68 63 64 60 58 58 59
138 147 147 162 170 169 167 169 168 168 158 148 146 146 146 135 116 115 111 109 105 106 106 103 105 104 100 77 65 69 64 62 71 71 63 59 64 68 65 62 59 59 59
147 140 154 159 173 172 171 170 168 162 161 152 147 145 145 138 132 124 116 109 107 109 107 112 113 109 100 86 90 84 79 70 64 61 62 58 66 68 66 63 59 58 59
141 136 153 159 169 177 178 178 175 171 166 158 148 147 145 143 133 129 119 118 112 110 109 110 114 110 100 94 76 74 89 89 81 71 62 59 67 69 67 65 63 60 60
336 148 149 167 168 183 192 188 184 175 172 162 157 149 142 137 129 134 126 118 116 114 114 115 117 110 95 89 79 75 85 73 64 67 66 63 66 73 72 72 69 64 62
333 82 136 164 171 172 193 206 198 185 173 169 161 152 153 133 130 137 133 127 124 118 118 116 116 105 105 84 54 46 60 78 73 67 68 77 79 75 74 73 73 73 69
336 14 108 145 176 185 202 202 208 195 178 175 158 138 132 123 143 138 160 138 130 124 120 118 118 115 96 74 69 49 80 84 77 70 76 82 81 80 77 75 73 72 72
245 306 330 109 152 184 215 226 201 182 104 70 128 158 46 152 167 178 132 148 139 131 127 133 137 137 119 80 338 53 97 91 82 81 80 83 84 82 81 79 77 75 73
143 179 293 334 195 173 183 97 312 123 123 96 101 90 42 24 14 18 121 129 125 136 122 134 148 169 152 137 272 92 92 88 86 85 82 87 85 85 85 82 80 78 76
21 7 180 191 181 181 154 135 137 142 152 132 148 113 90 45 22 346 343 149 153 170 165 155 178 173 161 180 169 105 107 105 92 89 91 90 90 90 88 86 85 82 80
238 199 63 167 182 174 174 154 157 137 153 161 158 160 128 122 100 295 314 274 178 189 166 156 120 100 110 252 107 116 109 105 100 91 88 98 92 92 91 89 86 85 83
255 185 164 187 198 176 209 170 154 156 155 186 169 168 150 160 156 181 263 282 282 208 145 115 130 157 184 98 79 100 110 114 109 101 83 96 94 92 92 91 89 87 84
301 318 186 149 155 262 186 192 165 163 160 181 179 180 161 176 172 187 173 244 272 133 101 88 82 74 72 77 83 96 116 120 119 116 95 76 76 84 92 92 90 88 87
244 271 301 228 172 200 184 174 217 175 163 173 177 167 169 185 195 198 159 187 237 139 127 108 111 98 98 99 99 89 108 129 131 132 129 117 92 69 77 94 94 92 90
276 268 294 321 215 186 214 172 183 157 139 177 170 179 183 189 193 187 193 179 189 166 140 144 134 132 127 110 109 93 87 91 122 129 128 129 121 103 80 87 85 92 94
314 260 209 302 297 204 196 147 144 148 190 180 186 162 188 193 188 182 187 160 165 123 127 130 121 130 126 128 114 96 91 96 104 105 108 98 125 128 130 115 97 83 94
294 268 178 227 280 249 173 149 140 163 162 180 145 176 188 195 187 170 180 160 145 121 136 146 122 127 122 117 98 72 69 111 112 124 114 114 123 137 146 160 132 110 103
330 321 164 210 236 234 141 137 169 154 77 99 108 176 192 200 187 161 161 155 138 127 135 122 115 105 109 122 124 95 101 2 55 125 125 141 160 151 156 151 140 146 130
347 326 302 206 207 210 149 110 85 93 78 96 138 149 135 160 175 161 144 149 136 136 150 117 128 122 139 124 147 139 115 190 133 199 152 145 144 126 125 105 110 129 142
336 336 306 352 179 136 164 121 144 115 140 128 120 84 75 109 158 158 135 134 134 139 140 123 138 147 134 160 187 259 182 148 154 123 329 169 145 135 124 71 52 44 82
2 6 3 67 81 133 127 143 127 101 153 151 142 143 133 55 160 119 94 139 157 124 146 148 138 150 151 139 144 131 29 52 136 139 163 171 78 88 81 70 39 50 38
25 19 27 22 24 122 154 147 130 148 157 156 137 140 144 124 326 92 117 111 113 104 140 145 157 158 167 172 155 138 145 146 170 157 119 140 130 26 68 59 38 21 16